Location: Poughquag
(41.6090°N, 73.6820°W)
Time: 12:05:15
(UTC-04:00)

Transit 2A Rocket - Pass Details

Date: 02 June 2020
Orbit: 584 x 919 km, 66.7° (Epoch: 06 July)

Event Time Altitude Azimuth Distance (km) Brightness Sun altitude
Rises 07:05:51 0° 332° (NNW) 3,512 8.3 16.9°
Reaches altitude 10° 07:08:23 10° 336° (NNW) 2,593 7.7 17.4°
Maximum altitude 07:14:25 61° 56° (NE) 1,036 6.5 18.5°
Drops below altitude 10° 07:20:27 10° 137° (SE) 2,588 8.2 19.6°
Sets 07:22:58 0° 140° (SE) 3,505 8.8 20.0°
